Voltar ao catálogo

CZ-6A DEB

AtivoPO
NORAD 64653·DEBRIS·🇨🇳 China

Lançado Aug 6, 2024 de Taiyuan Satellite Launch Center

Loading…

Próximas Passagens (próximas 24 horas)

TLE

AtualizadoSource: Space-Track

Época: Sep 14, 2026, 18:13 UTC

1 64653U 24140AET 26257.75958188  .00052166  00000-0  27764-2 0  9996
2 64653  88.9222 249.5295 0035890 191.0340 169.0120 15.14461400102723

Acompanhe CZ-6A DEB em tempo real com AllMySat

Download on the App Store